sat.trackr.live / text

‹ back to catalog

STARLINK-5317

NORAD 55283 · 2023-010Q

PAYLOAD ACTIVE UNKNOWN

§ Identity

Operator
Country
US
Launch date
2023-01-19
Launch site
AFWTR
Launch vehicle
Mass (kg)
RCS (m²)

Purposes: comms

External: N2YO · Heavens-Above · Gunter

§ Orbital elements

Epoch: 2026-09-20T22:00:03.000096Z

Period
95.57 min
Inclination
70.0015°
Eccentricity
0.0004204
Mean motion
15.06763046 rev/d
Perigee alt
543.2 km
Apogee alt
549.0 km
Semi-major
6,924.2 km
B*
7.8311e-3
RAAN
272.0922°
Arg perigee
276.8094°
Mean anomaly
37.0183°
Rev number
566

§ Raw data

STARLINK-53171 55283U 23010Q   26263.91670139  .00118633  00000+0  78311-2 0  99972 55283  70.0015 272.0922 0004204 276.8094  37.0183 15.06763046  5665

JSON: /api/v1/satellites/55283 · /tle

For live sub-satellite position, see the globe view (requires WebGL).

§ Visibility from observer

Set your observer location to see the next 7 days of passes ≥ 10°. The values pass through the URL so the page stays shareable.

No JS? Fill the form by hand. The geolocation button needs JavaScript.